Regional Weather Roundup
Issued by NWS Goodland, KS

Home | Current Version | Previous Version | Text Only | Print | Product List | Glossary On
Versions: 1 2 3 4 5 6 7 8 9 10 11 12 13 14 15 16 17 18 19 20 21 22 23 24 25 26 27 28 29 30 31 32 33 34 35 36 37 38 39 40 41 42 43 44 45 46 47 48 49 50
000
ASUS43 KGLD 071808
RWRGLD

GOODLAND FORECAST AREA HOURLY WEATHER ROUNDUP
NATIONAL WEATHER SERVICE GOODLAND KS
1200 PM MDT TUE JUL 07 2015

...OFFICIAL OBSERVATIONS...

CITY           SKY/WX    TMP DP  RH WIND       PRES   REMARKS
GOODLAND KS    SUNNY     72  44  36 E15G22    30.19F
HILL CITY KS   SUNNY     77  48  35 NE15G21   30.17F HAZE
IMPERIAL NEB   SUNNY     74  47  38 E12       30.18F
MCCOOK NEB     SUNNY     73  50  44 MISG      30.18F HAZE
AKRON CO       PTSUNNY   69  49  48 SE18G26   30.19F
BURLINGTON CO  SUNNY     70  44  39 SE12G20   30.22F
LIMON CO       CLOUDY    64  51  62 S15G22    30.23F
$$

...UNOFFICIAL OBSERVATIONS...

CITY           SKY/WX    TMP DP  RH WIND       PRES   REMARKS
COLBY KS       SUNNY     73  48  40 E14G20    30.20F
GOVE KS          N/A     74  32  21 MISG        N/A
NORTON KS      SUNNY     73  45  35 NE7G16    30.17
SHARON SPRINGS   N/A     72  51  46 E8G18       N/A
KIT CARSON CO    N/A     70  47  43 MISG        N/A
YUMA CO          N/A     70  50  49 SE8G15      N/A
$$


USA.gov is the U.S. government's official web portal to all federal, state and local government web resources and services.